Regional Weather Roundup
Issued by NWS

Home | Current Version | Previous Version | Text Only | Print | Product List | Glossary On
Versions: 1 2 3 4 5 6 7 8 9 10 11 12 13 14 15 16 17 18 19 20 21 22 23 24 25 26 27 28 29 30 31 32 33 34 35 36 37 38 39 40 41 42 43 44 45 46 47 48 49 50
000
ASUS46 KSTO 021736
RWRCA

NORTHERN AND CENTRAL CALIFORNIA STATE WEATHER ROUNDUP
NATIONAL WEATHER SERVICE SACRAMENTO
1000 AM PDT TUE JUN 02 2015

Note: "fair" indicates few or no clouds below 12,000 feet with no
significant weather and/or obstructions to visibility.

CAZ001-003-021800
NORTHWEST AREA

CITY           SKY/WX    TMP DP  RH WIND       PRES   REMARKS
CRESCENT CITY  SUNNY     57  54  89 NW6       30.15R
ARCATA         NOT AVBL
SHELTER COVE   NOT AVBL
UKIAH          SUNNY     65  52  62 N8        30.07F
$$

CAZ006-505>513-021800
BAY AREA

CITY           SKY/WX    TMP DP  RH WIND       PRES   REMARKS
SANTA ROSA     MOSUNNY   65  53  65 VRB3      30.04S
SAN RAFAEL     N/A       60  MM  MM MISG
NAPA           MOSUNNY   64  53  67 VRB6      30.05S
CONCORD        PTSUNNY   65  52  62 S8        30.06S
OAKLAND CITY   N/A       61  MM  MM MISG
OAKLAND        CLOUDY    60  52  74 W10       30.08S
SAN FRAN CITY  N/A       59  MM  MM MISG
SAN FRAN ARPT  CLOUDY    61  52  72 W12       30.09R
LIVERMORE      CLOUDY    64  52  64 W10       30.07R
HAYWARD        CLOUDY    60  53  77 W9        30.08R
REDWOOD CITY   N/A       60  MM  MM MISG
MOFFETT ARPT   CLOUDY    62  53  72 N8        30.09S
SAN JOSE ARPT  CLOUDY    62  52  69 N8        30.09R
$$

CAZ034-037-514>518-021800
CENTRAL COAST

CITY           SKY/WX    TMP DP  RH WIND       PRES   REMARKS
WATSONVILLE    PTSUNNY   67  54  63 S7        30.07F
SALINAS        MOSUNNY   66  53  63 W12       30.07R
MONTEREY       CLOUDY    60  53  77 W8        30.09S
SAN LUIS OBISP SUNNY     68  53  58 NW15      30.01F
SANTA MARIA    MOSUNNY   62  56  80 NW6       30.03S
$$

CAZ015-016-021800
NORTHERN SACRAMENTO VALLEY

CITY           SKY/WX    TMP DP  RH WIND       PRES   REMARKS
REDDING        SUNNY     71  53  52 CALM      30.02F
RED BLUFF      SUNNY     71  52  50 VRB3      30.03F
OROVILLE       SUNNY     69  56  62 W3        30.04S
$$

CAZ016>018-021800
SOUTHERN SACRAMENTO VALLEY

CITY           SKY/WX    TMP DP  RH WIND       PRES   REMARKS
BEALE AFB      SUNNY     69  54  59 VRB5      30.01S
MARYSVILLE     NOT AVBL
SAC INTL ARPT  MOSUNNY   67  54  63 CALM      30.03R
MATHER AIRPORT NOT AVBL
SAC EXEC ARPT  SUNNY     67  54  63 CALM      30.03S
DOWNTOWN SAC   N/A       69  MM  MM MISG
VACAVILLE      SUNNY     70  53  54 VRB5      30.04S
TRAVIS AFB     SUNNY     68  54  60 W9        30.02S
$$

CAZ019>021-021800
SAN JOAQUIN VALLEY

CITY           SKY/WX    TMP DP  RH WIND       PRES   REMARKS
STOCKTON       SUNNY     69  55  60 NW12      30.03S
MODESTO        SUNNY     70  52  52 NW13      30.02S
MERCED         NOT AVBL
LEMOORE        SUNNY     72  51  47 N13       30.02F
FRESNO         SUNNY     69  52  54 W7        30.02S
HANFORD        SUNNY     71  52  50 VRB6      30.02S
PORTERVILLE    SUNNY     70  54  56 SW9       30.03S
BAKERSFIELD    SUNNY     69  52  54 VRB3      30.02F
$$

CAZ011-012-071-021800
NORTHERN MOUNTAINS

CITY           SKY/WX    TMP DP  RH WIND       PRES   REMARKS
YREKA          CLOUDY    59  50  72 CALM      30.09S
MOUNT SHASTA   PTSUNNY   61  50  67 CALM      30.08S
ALTURAS        PTSUNNY   58  48  69 SW7       30.09F
$$

CAZ011-012-071-021800
SIERRA NEVADA MTNS

CITY           SKY/WX    TMP DP  RH WIND       PRES   REMARKS
BLUE CANYON    SUNNY     57  36  45 S9        30.14S
TRUCKEE        NOT AVBL
TAHOE VALLEY A SUNNY     62  34  35 NE7       30.13S
MAMMOTH LAKES  FAIR      63  14  15 E9        30.16S
$$




USA.gov is the U.S. government's official web portal to all federal, state and local government web resources and services.